[[{"header":{"parameterUnit":"m.s-1","parameterCategory":1,"la1":30.2991,"la2":30.254,"lo1":-89.0895,"lo2":-89.0444,"dy":0.0017,"dx":0.0017,"nx":28,"ny":28,"refTime":"2024-06-14T03:00:00:Z","depth":0,"parameterNumber":2,"parameterNumberName":"U-component_of_WINDS"},"data":[0,0,0,0,0,0,0,0,0,0,0,0,0,0,0,0,0,0,0,0,0,0,0,0,0,0,0,0,0,0,0,0,0,0,0,0,0,0,0,0,0,0,0,0,0,0,0,0,0,0,0,0,0,0,0,0,0,0,-1.9763,-1.9762,0,-1.9644,-1.9643,-1.9642,-1.9581,-1.9581,-1.9581,-1.9581,-1.9457,-1.9454,-1.9451,0,0,0,0,0,0,0,0,0,0,0,0,0,-1.994,-1.9937,-1.9764,-1.9762,-1.9761,-1.9645,-1.9643,-1.9641,-1.9581,-1.9581,-1.9581,-1.9581,-1.9458,-1.9455,-1.9451,0,0,0,0,0,0,0,0,0,0,0,0,0,-1.9846,-1.9936,-1.9764,-1.9717,-1.9711,-1.9645,-1.9643,-1.9641,-1.9581,-1.9581,-1.9581,-1.9581,-1.946,-1.9455,-1.945,-1.9421,0,0,-1.9435,-1.9433,0,0,0,0,0,0,0,0,-1.9851,-1.984,-1.9725,-1.972,-1.9714,-1.9628,-1.9659,-1.9567,-1.9581,-1.9631,-1.9581,-1.9581,-1.9514,-1.9505,-1.9482,-1.9415,-1.941,-1.9435,-1.9432,-1.943,-1.9428,0,0,0,0,0,0,0,-1.9858,-1.9844,-1.9716,-1.9723,-1.9716,-1.9702,-1.9688,-1.9642,-1.9574,-1.9626,-1.9622,-1.9608,-1.9511,-1.9487,-1.9479,-1.9408,-1.9435,-1.943,-1.9427,-1.9426,-1.9314,-1.9314,0,0,0,0,0,0,-1.9872,-1.985,-1.972,-1.9713,-1.9784,-1.9699,-1.9684,-1.9655,-1.9574,-1.9562,-1.9609,-1.9606,-1.9496,-1.9485,-1.9474,-1.9436,-1.943,-1.9425,-1.9422,-1.9314,-1.9314,-1.9314,0,0,0,0,0,0,-1.9876,-1.9861,-1.9725,-1.978,-1.9762,-1.9696,-1.9664,-1.9653,-1.9629,-1.9561,-1.9549,-1.9597,-1.9495,-1.9481,-1.9435,-1.9431,-1.9423,-1.9418,-1.9314,-1.9314,-1.9314,-1.9359,0,0,0,0,0,0,-1.9881,-1.9863,-1.9851,-1.978,-1.9759,-1.9688,-1.9664,-1.9651,-1.9621,-1.9617,-1.9547,-1.9535,-1.9494,-1.9443,-1.9431,-1.9424,-1.9415,-1.9314,-1.9314,-1.9314,-1.9358,-1.9361,-1.9363,0,0,0,0,0,-1.9888,-1.9867,-1.985,-1.9835,-1.9742,-1.9688,-1.9675,-1.9629,-1.9621,-1.9609,-1.9565,-1.9537,-1.9434,-1.9439,-1.9424,-1.9416,-1.9314,-1.9314,-1.9314,-1.9357,-1.936,-1.9363,0,0,0,0,0,0,-1.9937,-1.9857,-1.9837,-1.9793,-1.9748,-1.9678,-1.966,-1.9634,-1.9589,-1.9587,-1.9531,-1.9516,-1.9476,-1.9441,-1.9448,-1.9385,-1.9371,-1.9368,-1.9409,-1.9412,-1.9415,-1.9423,-1.941,0,0,0,0,0,-1.9943,-1.9906,-1.9837,-1.9805,-1.9784,-1.9726,-1.97,-1.9669,-1.962,-1.96,-1.9553,-1.9506,-1.9463,-1.9435,-1.9392,-1.9353,-1.9338,-1.9341,-1.9344,-1.9346,-1.9344,-1.9324,-1.9325,-1.9313,-1.9313,-1.9313,0,0,-1.9954,-1.9906,-1.9885,-1.9814,-1.9775,-1.9738,-1.971,-1.9671,-1.9643,-1.9593,-1.9548,-1.9513,-1.9456,-1.9415,-1.9394,-1.9385,-1.9344,-1.9346,-1.9349,-1.9345,-1.9324,-1.9325,-1.9326,-1.9313,-1.9313,-1.9313,0,0,-1.9956,-1.9916,-1.9885,-1.9848,-1.979,-1.9753,-1.9746,-1.968,-1.9655,-1.9609,-1.9571,-1.9538,-1.9464,-1.9426,-1.9398,-1.939,-1.9363,-1.9377,-1.9391,-1.9372,-1.9372,-1.9373,-1.9371,-1.9371,-1.9375,-1.9375,-1.9375,0,-1.9977,-1.992,-1.9873,-1.9837,-1.9807,-1.9763,-1.9732,-1.9698,-1.9629,-1.961,-1.9601,-1.951,-1.9469,-1.9419,-1.9418,-1.9395,-1.9387,-1.9384,-1.9376,-1.9376,-1.9376,-1.9374,-1.9373,-1.9378,-1.9377,-1.9377,-1.9377,0,-1.9949,-1.991,-1.9893,-1.9829,-1.9798,-1.9765,-1.9713,-1.9687,-1.966,-1.9624,-1.9579,-1.9528,-1.9475,-1.9461,-1.9433,-1.9408,-1.9405,-1.9387,-1.9371,-1.938,-1.9377,-1.9376,-1.9381,-1.938,-1.9379,-1.9379,0,0,-1.9975,-1.9889,-1.9884,-1.9855,-1.979,-1.9759,-1.9726,-1.9675,-1.9654,-1.9609,-1.958,-1.9521,-1.9505,-1.9473,-1.944,-1.9423,-1.9423,-1.9408,-1.9406,-1.9413,-1.9394,-1.9408,-1.9408,-1.9405,-1.9405,-1.9404,-1.9399,0,-1.9969,-1.9906,-1.9864,-1.9818,-1.9783,-1.9742,-1.9713,-1.967,-1.9636,-1.9602,-1.9564,-1.9524,-1.9505,-1.9486,-1.9467,-1.9427,-1.9418,-1.9426,-1.9378,-1.9376,-1.9393,-1.9406,-1.9419,-1.9417,-1.9398,-1.9397,-1.9397,0,-1.9951,-1.9909,-1.986,-1.9802,-1.9785,-1.976,-1.9712,-1.9679,-1.9631,-1.9607,-1.9574,-1.9541,-1.9505,-1.9494,-1.9444,-1.9451,-1.9429,-1.9406,-1.9405,-1.9398,-1.9387,-1.94,-1.9415,-1.9415,-1.9395,-1.9395,-1.9395,0,-1.9976,-1.9908,-1.987,-1.9847,-1.9778,-1.9761,-1.9732,-1.9684,-1.9657,-1.9615,-1.9598,-1.9552,-1.9527,-1.9492,-1.9449,-1.9445,-1.9405,-1.9389,-1.9385,-1.9386,-1.9377,-1.9378,-1.9389,-1.9363,-1.9363,-1.9363,-1.9363,0,-1.9972,-1.9944,-1.9881,-1.9858,-1.9826,-1.978,-1.9749,-1.9716,-1.9675,-1.9645,-1.9607,-1.958,-1.9525,-1.9491,-1.9458,-1.9423,-1.9411,-1.9392,-1.9383,-1.9395,-1.9398,-1.938,-1.9379,-1.9363,-1.9363,-1.9363,-1.9363,0,-1.9994,-1.9951,-1.9908,-1.9847,-1.9832,-1.9811,-1.9759,-1.9736,-1.9702,-1.9665,-1.9653,-1.9599,-1.9559,-1.9513,-1.9456,-1.9434,-1.9401,-1.9388,-1.9418,-1.9413,-1.9412,-1.9413,-1.9411,-1.9409,-1.9385,-1.9385,-1.9385,0,-1.9995,-1.9972,-1.9911,-1.9889,-1.9861,-1.9826,-1.9799,-1.9754,-1.9728,-1.9674,-1.9657,-1.9614,-1.9577,-1.9514,-1.947,-1.9427,-1.9413,-1.9416,-1.9406,-1.942,-1.9414,-1.9417,-1.9415,-1.9418,-1.9419,-1.9419,-1.942,0,-2.0,-1.9981,-1.9944,-1.9901,-1.9871,-1.9835,-1.9797,-1.9781,-1.9728,-1.9701,-1.966,-1.9632,-1.9576,-1.9534,-1.9487,-1.9456,-1.943,-1.9423,-1.942,-1.9432,-1.9451,-1.9442,-1.9426,-1.9423,-1.9423,-1.9422,-1.9422,-1.9422,-2.0011,-1.9991,-1.9945,-1.9907,-1.9874,-1.9841,-1.9817,-1.9781,-1.9746,-1.9698,-1.9673,-1.9633,-1.9588,-1.9522,-1.9494,-1.9462,-1.9453,-1.9448,-1.9447,-1.9446,-1.9451,-1.9456,-1.9453,-1.9453,-1.9453,-1.9452,-1.9452,0,-2.0015,-1.9985,-1.995,-1.99,-1.9871,-1.985,-1.9808,-1.9784,-1.975,-1.9711,-1.9676,-1.9631,-1.9591,-1.9545,-1.9503,-1.9487,-1.9474,-1.9477,-1.9478,-1.9472,-1.946,-1.9468,-1.9489,-1.9489,-1.9489,-1.9489,-1.9489,-1.9489,-2.0014,-1.9979,-1.9955,-1.9905,-1.9874,-1.9835,-1.9814,-1.9783,-1.9752,-1.9703,-1.9671,-1.9642,-1.9601,-1.9556,-1.9519,-1.9507,-1.9493,-1.9501,-1.9485,-1.9475,-1.9472,-1.9469,-1.9476,-1.9498,-1.9498,-1.9499,-1.9499,-1.9499]},{"header":{"parameterUnit":"m.s-1","parameterCategory":1,"la1":30.2991,"la2":30.254,"lo1":-89.0895,"lo2":-89.0444,"dy":0.0017,"dx":0.0017,"nx":28,"ny":28,"refTime":"2024-06-14T03:00:00:Z","depth":0,"parameterNumber":3,"parameterNumberName":"V-component_of_WINDS"},"data":[0,0,0,0,0,0,0,0,0,0,0,0,0,0,0,0,0,0,0,0,0,0,0,0,0,0,0,0,0,0,0,0,0,0,0,0,0,0,0,0,0,0,0,0,0,0,0,0,0,0,0,0,0,0,0,0,0,0,3.128,3.1279,0,3.1214,3.1213,3.1212,3.1251,3.1253,3.1255,3.1256,3.118,3.1176,3.1173,0,0,0,0,0,0,0,0,0,0,0,0,0,3.1432,3.1429,3.128,3.1279,3.1279,3.1214,3.1213,3.1212,3.125,3.1253,3.1255,3.1257,3.1181,3.1177,3.1172,0,0,0,0,0,0,0,0,0,0,0,0,0,3.1366,3.1428,3.128,3.129,3.129,3.1214,3.1213,3.1212,3.125,3.1253,3.1256,3.1258,3.1183,3.1177,3.1172,3.108,0,0,3.1154,3.1152,0,0,0,0,0,0,0,0,3.1369,3.136,3.1289,3.1289,3.1289,3.1244,3.1239,3.1167,3.1249,3.1265,3.1256,3.126,3.1198,3.1192,3.1173,3.1076,3.1073,3.1154,3.115,3.1148,3.1146,0,0,0,0,0,0,0,3.1374,3.1363,3.1254,3.1288,3.1288,3.1295,3.1289,3.1225,3.1216,3.1264,3.1266,3.1259,3.1199,3.1178,3.1171,3.1072,3.1154,3.1149,3.1145,3.1143,3.0896,3.0893,0,0,0,0,0,0,3.1379,3.1367,3.1256,3.1252,3.1338,3.129,3.1283,3.1255,3.1217,3.1214,3.1256,3.1261,3.1186,3.1178,3.1169,3.1058,3.1148,3.1142,3.1139,3.09,3.0896,3.0892,0,0,0,0,0,0,3.1382,3.1369,3.1258,3.131,3.1297,3.1285,3.1253,3.1253,3.1232,3.1212,3.1209,3.1237,3.1188,3.1177,3.1102,3.1056,3.114,3.1135,3.0903,3.0898,3.0894,3.0837,0,0,0,0,0,0,3.1386,3.137,3.1336,3.1309,3.1294,3.1195,3.125,3.1249,3.1223,3.1228,3.1193,3.119,3.119,3.111,3.1096,3.105,3.113,3.0907,3.0901,3.0896,3.0843,3.0831,3.0821,0,0,0,0,0,3.1392,3.1321,3.1334,3.1321,3.1252,3.1192,3.1183,3.1187,3.1219,3.1184,3.1171,3.1191,3.1064,3.1103,3.1087,3.1038,3.091,3.0903,3.0896,3.0848,3.0834,3.0821,0,0,0,0,0,0,3.1339,3.1317,3.1332,3.1251,3.1224,3.1199,3.1155,3.1171,3.1132,3.1138,3.1142,3.1133,3.1056,3.104,3.1083,3.0947,3.0992,3.0981,3.0961,3.0947,3.0936,3.0941,3.1126,0,0,0,0,0,3.1319,3.1275,3.1257,3.1187,3.1173,3.1167,3.1141,3.1146,3.1117,3.1105,3.1086,3.1055,3.1008,3.0976,3.0932,3.0842,3.0834,3.08,3.0789,3.078,3.0771,3.0721,3.0706,3.0869,3.0869,3.0869,0,0,3.1275,3.1258,3.1229,3.1177,3.1156,3.1108,3.1156,3.1103,3.1067,3.1096,3.1025,3.101,3.0975,3.0893,3.0855,3.0877,3.0724,3.0771,3.0764,3.076,3.0713,3.0697,3.0683,3.0864,3.0865,3.0866,0,0,3.1171,3.1155,3.1095,3.1074,3.1044,3.104,3.1026,3.0999,3.0991,3.0921,3.0942,3.0898,3.0817,3.0791,3.0768,3.0656,3.0672,3.0641,3.0582,3.0534,3.0522,3.051,3.047,3.0455,3.0632,3.0632,3.0632,0,3.112,3.1052,3.1061,3.1007,3.0983,3.101,3.0948,3.0927,3.0882,3.0863,3.0889,3.0789,3.0767,3.0679,3.0652,3.0632,3.0615,3.0644,3.0523,3.0512,3.0501,3.0462,3.0447,3.0628,3.0629,3.0629,3.0629,0,3.099,3.0942,3.0897,3.0857,3.0827,3.0769,3.0768,3.0737,3.0745,3.0738,3.0666,3.0641,3.0593,3.0572,3.0579,3.0485,3.0499,3.0524,3.0568,3.0482,3.0446,3.0431,3.0623,3.0624,3.0625,3.0626,0,0,3.0849,3.0817,3.08,3.0783,3.0752,3.0713,3.0657,3.0612,3.0585,3.0553,3.0504,3.0437,3.046,3.0433,3.0437,3.0395,3.0307,3.0425,3.0424,3.0403,3.0201,3.0182,3.0165,3.0319,3.0316,3.0314,3.0204,0,3.0742,3.0647,3.0654,3.0562,3.0517,3.0543,3.0494,3.0468,3.046,3.0419,3.0409,3.0361,3.0396,3.038,3.034,3.0327,3.0267,3.0335,3.0271,3.0269,3.0278,3.0146,3.0125,3.0023,3.019,3.0188,3.0186,0,3.0605,3.0573,3.0477,3.0455,3.0436,3.0392,3.0352,3.0313,3.0284,3.0281,3.0253,3.0264,3.0204,3.0252,3.0169,3.0215,3.0189,3.0179,3.0175,3.0168,3.0221,3.0134,2.9991,2.9975,3.0164,3.0165,3.0167,0,3.0511,3.0443,3.0378,3.0362,3.0334,3.0302,3.0288,3.0263,3.0236,3.02,3.0182,3.0139,3.0115,3.008,3.0079,3.0114,2.9995,3.0042,2.9989,2.9989,2.9961,2.9963,2.981,2.9947,2.9947,2.9947,2.9947,0,3.0391,3.0331,3.0336,3.0295,3.0229,3.0237,3.017,3.0159,3.0137,3.0093,3.0112,3.007,3.0071,3.0027,3.0026,2.9957,2.9946,2.994,2.994,2.9938,2.9939,2.992,2.9927,2.9943,2.9944,2.9945,2.9945,0,3.0274,3.0275,3.0205,3.0186,3.0179,3.0131,3.0113,3.0073,3.0068,3.0012,3.0,2.999,2.994,2.9936,2.9877,2.9876,2.9793,2.9801,2.9803,2.9804,2.9751,2.9756,2.958,2.9557,2.9709,2.9708,2.9707,0,3.0197,3.0153,3.0129,3.0103,3.0088,3.0045,3.0019,3.0025,2.9996,2.9961,2.9925,2.9878,2.984,2.9759,2.9745,2.97,2.9706,2.9648,2.9699,2.9699,2.9704,2.9707,2.9702,2.9637,2.9636,2.9634,2.9633,0,3.006,3.0063,3.0026,2.9989,2.9958,2.9928,2.99,2.9877,2.988,2.9846,2.9797,2.9768,2.971,2.9662,2.9618,2.9601,2.9617,2.9618,2.9603,2.9599,2.9602,2.9599,2.9775,2.9621,2.9622,2.9623,2.9624,2.9624,2.996,2.9922,2.99,2.9858,2.9838,2.9813,2.9775,2.9767,2.9727,2.9682,2.9687,2.9632,2.9605,2.9548,2.9528,2.9484,2.9503,2.9482,2.9476,2.947,2.9465,2.9611,2.9476,2.9476,2.9477,2.9477,2.9477,0,2.9823,2.9811,2.9772,2.9735,2.9701,2.9723,2.9694,2.9663,2.9616,2.959,2.9554,2.9497,2.9451,2.9435,2.939,2.9357,2.9363,2.9345,2.9347,2.9343,2.945,2.9468,2.9341,2.9341,2.9341,2.9341,2.9341,2.9341,2.9748,2.9684,2.9685,2.9611,2.9599,2.9548,2.9529,2.9505,2.9485,2.9422,2.9385,2.9376,2.9353,2.9307,2.9265,2.9261,2.9243,2.9222,2.9221,2.9321,2.9335,2.9348,2.9364,2.9218,2.9218,2.9117,2.9116,2.9115]}]]